Regional Weather Roundup
Issued by NWS Little Rock, AR

Home | Current Version | Previous Version | Graphics & Text | Print | Product List | Glossary On
Versions: 1 2 3 4 5 6 7 8 9 10 11 12 13 14 15 16 17 18 19 20 21 22 23 24 25 26 27 28 29 30 31 32 33 34 35 36 37 38 39 40 41 42 43 44 45 46 47 48 49 50
000
ASUS44 KLZK 261805
RWRLZK

WEATHER ROUNDUP FOR ARKANSAS
NATIONAL WEATHER SERVICE LITTLE ROCK AR
100 PM CDT TUE JUL 26 2016

NOTE: "FAIR" INDICATES FEW OR NO CLOUDS BELOW 12,000 FEET WITH NO
SIGNIFICANT WEATHER AND/OR OBSTRUCTIONS TO VISIBILITY.

ARZ001-003-010-029-261900-
NORTHWEST ARKANSAS

CITY           SKY/WX    TMP DP  RH WIND       PRES   REMARKS
FAYETTEVILLE   CLOUDY    82  76  81 S6        30.02F HX  89
6HR MIN TEMP:  71; 6HR MAX TEMP:  87;

FORT SMITH     MOSUNNY   91  72  53 NE6       29.96F HX  98
6HR MIN TEMP:  75; 6HR MAX TEMP:  91;

HARRISON       CLOUDY    87  73  62 S7        30.03F HX  94
6HR MIN TEMP:  73; 6HR MAX TEMP:  87;

BENTONVILLE    PTSUNNY   88  70  55 SE6       30.03F HX  92
6HR MIN TEMP:  75; 6HR MAX TEMP:  90;

ROGERS         SUNNY     87  72  60 E5        30.03F HX  93
6HR MIN TEMP:  74; 6HR MAX TEMP:  88;

SILOAM SPGS    SUNNY     88  68  51 CALM      30.03F HX  91
6HR MIN TEMP:  73; 6HR MAX TEMP:  88;

HIGHFILL       MOSUNNY   90  75  61 NE6       30.02F HX 100
6HR MIN TEMP:  75; 6HR MAX TEMP:  90;

SPRINGDALE     PTSUNNY   88  73  62 E5        30.03F HX  96
$$

ARZ004-005-016-261900-
NORTH CENTRAL ARKANSAS

CITY           SKY/WX    TMP DP  RH WIND       PRES   REMARKS
BATESVILLE     PTSUNNY   90  72  55 S5        29.98F HX  96
6HR MIN TEMP:  73; 6HR MAX TEMP:  93;

FLIPPIN        PTSUNNY   88  73  62 E8        29.97F THUNDER HX  96
6HR MIN TEMP:  73; 6HR MAX TEMP:  88;

MTN HOME       MOSUNNY   86  75  69 S6        30.00F THUNDER HX  95
6HR MIN TEMP:  75; 6HR MAX TEMP:  88;

$$

ARZ040-041-261900-
WEST CENTRAL ARKANSAS

CITY           SKY/WX    TMP DP  RH WIND       PRES   REMARKS
MENA           MOSUNNY   90  77  66 SE3       29.99F HX 102
MOUNT IDA      PTSUNNY   92  69  47 VRB3      29.97F HX  97
6HR MIN TEMP:  74; 6HR MAX TEMP:  94;

$$

ARZ009-017-025-026-028-261900-
NORTHEAST ARKANSAS

CITY           SKY/WX    TMP DP  RH WIND       PRES   REMARKS
CORNING          N/A     91  79  66 E7        29.99F HX 107
JONESBORO      MOSUNNY   92  75  57 SE6       29.97F HX 103
6HR MIN TEMP:  77; 6HR MAX TEMP:  93;

NEWPORT        SUNNY     95  71  45 VRB7      29.98F HX 102
6HR MIN TEMP:  77; 6HR MAX TEMP:  95;

WALNUT RIDGE   MOSUNNY   93  73  52 S6        29.96F HX 102
6HR MIN TEMP:  75; 6HR MAX TEMP:  93;

BLYTHEVILLE    SUNNY     92  75  57 VRB3      29.99F HX 103
6HR MIN TEMP:  77; 6HR MAX TEMP:  93;

$$

ARZ022-023-033-042-044-261900-
CENTRAL ARKANSAS

CITY           SKY/WX    TMP DP  RH WIND       PRES   REMARKS
LITTLE ROCK    MOSUNNY   94  74  52 SE7       29.97F HX 104
6HR MIN TEMP:  80; 6HR MAX TEMP:  94;

N LITTLE ROCK    N/A     91  75  60 S6        29.94F HX 102
6HR MIN TEMP:  76; 6HR MAX TEMP:  92;

JACKSONVILLE   MOSUNNY   92  76  60 VRB3      29.97F HX 103
6HR MIN TEMP:  77; 6HR MAX TEMP:  94;

SEARCY         SUNNY     95  77  55 SE12      29.98F HX 109
6HR MIN TEMP:  76; 6HR MAX TEMP:  96;

HOT SPRINGS    MOSUNNY   91  71  51 SE10      29.98F HX  97
6HR MIN TEMP:  77; 6HR MAX TEMP:  92;

RUSSELLVILLE   SUNNY     90  74  59 CALM      29.96F HX  99
6HR MIN TEMP:  75; 6HR MAX TEMP:  91;

$$

ARZ036-261900-
EAST ARKANSAS

CITY           SKY/WX    TMP DP  RH WIND       PRES   REMARKS
WEST MEMPHIS   SUNNY     93  70  46 SE6       29.97F HX  99
6HR MIN TEMP:  75; 6HR MAX TEMP:  93;

$$

ARZ050-053-066-070-073-261900-
SOUTHWEST ARKANSAS

CITY           SKY/WX    TMP DP  RH WIND       PRES   REMARKS
CAMDEN         MOSUNNY   93  68  43 SE7       29.96F HX  97
TEXARKANA      SUNNY     93  71  48 E8        29.96F HX 100
6HR MIN TEMP:  76; 6HR MAX TEMP:  93;

EL DORADO      PTSUNNY   92  72  51 E9        29.97F HX  99
6HR MIN TEMP:  73; 6HR MAX TEMP:  93;

DE QUEEN       SUNNY     94  73  50 MISG      29.93F HX 103
6HR MIN TEMP:  75; 6HR MAX TEMP:  94;

$$

ARZ056-057-069-261900-
SOUTHEAST ARKANSAS

CITY           SKY/WX    TMP DP  RH WIND       PRES   REMARKS
PINE BLUFF     SUNNY     94  71  47 SE8       29.98F HX 101
6HR MIN TEMP:  76; 6HR MAX TEMP:  94;

STUTTGART      SUNNY     93  72  49 SE9       29.98F HX 100
6HR MIN TEMP:  79; 6HR MAX TEMP:  93;

MONTICELLO     MOSUNNY   91  73  55 E7        29.97F HX  99
6HR MIN TEMP:  77; 6HR MAX TEMP:  94;


$$





USA.gov is the U.S. government's official web portal to all federal, state and local government web resources and services.